2024-205K

Last updated on Thu Nov 21 2024 00:02:06 GMT+0000 (Coordinated Universal Time)

1 61903U 24205K 24325.59370932 .00018897 00000+0 10185-2 0 9995 2 61903 97.4727 37.6089 0012924 252.2113 107.7709 15.14764559 1395
UTC large
Height (km)
Speed (km/s)
/
Latitude / Longitude
Inclination (degrees)
Orbital Period (minutes)
Azimuth
Elevation
Range (km)
Doppler Factor

Next 0 passes for location: London (51.5072 / 0.1276)

Sorry there are no passes over London.